Location: Seattle
(47.6064°N, 122.3308°W)
Time: 00:05:04
(UTC-08:00)

Tiros 1 - Pass Details

Date: 05 December 2020
Orbit: 630 x 663 km, 48.4° (Epoch: 28 January)

Event Time Altitude Azimuth Distance (km) Brightness Sun altitude
Rises 17:52:54 0° 286° (WNW) 2,996 11.6 -15.2°
Reaches altitude 10° 17:55:18 10° 282° (WNW) 2,079 10.7 -15.6°
Maximum altitude 17:59:57 52° 206° (SSW) 817 7.9 -16.4°
Enters shadow 18:04:09 12° 132° (SE) 1,906 9.2 -17.1°
Drops below altitude 10° 18:04:34 10° 131° (SE) 2,057 - -17.1°
Sets 18:06:56 0° 126° (SE) 2,960 - -17.5°
